Total_Precipitation_Accumulation
1.68 2.15 2.68 3.17 3.82 4.72 5.65 6.01 5.80 5.22 4.77 4.37 3.91 3.55 3.22 2.98 2.84 2.53 2.19 2.11 2.05 1.99 2.19 1.92 2.09 2.11 2.23 2.29 2.26 2.38 2.34 2.10 2.22 2.59 2.48 2.12 1.93 1.94 1.88 1.80 1.82 1.62 1.69
1.73 2.25 2.85 3.23 3.55 4.07 4.81 5.12 4.80 4.17 3.58 3.33 3.20 3.04 2.94 2.61 2.41 2.33 2.23 1.93 1.92 1.90 1.92 2.03 1.81 1.85 2.02 1.99 2.02 2.32 2.28 1.99 2.06 2.44 2.64 2.42 2.40 2.12 1.61 1.64 1.75 1.70 1.80
1.53 2.26 2.80 3.09 3.33 3.52 3.51 3.62 3.53 3.04 2.70 2.64 2.64 2.61 2.70 2.53 2.28 2.16 2.02 1.75 1.66 1.59 1.66 1.70 1.76 1.88 1.81 1.91 1.99 2.07 2.21 2.11 1.92 1.98 2.50 2.46 2.31 2.10 1.85 1.62 1.60 1.72 1.95
1.36 2.12 2.41 2.52 2.55 2.64 2.44 2.44 2.53 2.36 2.31 2.24 2.29 2.20 2.07 2.05 1.95 1.93 1.85 1.74 1.60 1.54 1.42 1.48 1.57 1.73 1.74 1.98 1.75 1.82 2.05 2.12 1.88 1.90 2.02 2.05 2.11 2.19 1.98 1.68 1.51 1.52 1.63
1.07 1.40 1.47 1.60 1.67 1.74 1.78 1.95 2.21 2.25 2.13 2.09 2.22 2.26 1.98 1.83 1.75 1.76 1.84 1.74 1.61 1.50 1.36 1.41 1.54 1.66 1.71 1.78 1.79 2.03 1.99 1.90 1.88 1.89 1.95 2.01 2.02 1.92 1.97 1.90 1.64 1.49 1.36
0.76 0.95 1.00 1.06 1.12 1.17 1.30 1.50 1.92 2.12 1.98 1.93 1.99 1.98 1.92 1.86 1.75 1.67 1.70 1.67 1.61 1.59 1.57 1.49 1.59 1.60 1.63 1.66 1.71 1.87 1.90 1.91 1.96 1.85 1.79 1.95 2.04 1.98 2.05 1.94 1.70 1.54 1.31
0.67 0.78 0.94 0.98 0.90 0.87 1.00 1.20 1.51 1.64 1.60 1.66 1.78 1.86 1.93 1.88 1.73 1.66 1.59 1.57 1.47 1.53 1.67 1.64 1.66 1.66 1.67 1.59 1.68 1.76 1.74 1.83 1.93 1.86 1.74 1.74 1.73 1.85 1.97 1.99 1.73 1.60 1.40
0.52 0.55 0.65 0.67 0.64 0.71 0.80 0.98 1.13 1.21 1.29 1.40 1.57 1.71 1.74 1.73 1.69 1.77 1.64 1.53 1.41 1.39 1.54 1.67 1.68 1.61 1.53 1.51 1.83 1.70 1.64 1.76 1.81 1.74 2.00 1.92 1.73 1.87 1.98 2.05 2.09 1.90 1.78
0.39 0.38 0.41 0.44 0.50 0.65 0.76 0.84 0.93 1.04 1.14 1.24 1.46 1.59 1.61 1.57 1.60 1.69 1.62 1.46 1.48 1.43 1.50 1.48 1.63 1.68 1.56 1.58 1.76 1.72 1.69 1.75 1.71 1.81 2.03 2.01 1.91 1.92 1.96 2.14 2.37 2.49 2.28
0.34 0.36 0.37 0.38 0.38 0.44 0.61 0.74 0.81 0.96 1.12 1.19 1.23 1.28 1.44 1.42 1.40 1.35 1.34 1.42 1.45 1.45 1.52 1.54 1.48 1.52 1.59 1.65 1.75 1.69 1.65 1.76 1.83 1.96 2.08 2.08 2.05 2.08 2.01 2.11 2.32 2.50 2.53
0.41 0.36 0.42 0.42 0.38 0.40 0.51 0.65 0.71 0.82 0.93 0.95 0.97 1.09 1.20 1.20 1.17 1.17 1.15 1.26 1.30 1.35 1.37 1.40 1.42 1.41 1.50 1.73 1.99 1.91 1.87 1.90 1.95 2.01 2.16 2.24 2.40 2.40 2.26 2.25 2.23 2.30 2.44
0.54 0.49 0.51 0.46 0.47 0.46 0.49 0.58 0.58 0.60 0.66 0.72 0.80 0.90 1.03 1.04 1.05 1.08 1.21 1.30 1.28 1.22 1.14 1.19 1.26 1.25 1.36 1.62 1.94 2.09 2.12 2.18 2.14 2.20 2.38 2.42 2.44 2.39 2.28 2.31 2.28 2.24 2.40
0.56 0.67 0.65 0.52 0.50 0.44 0.47 0.53 0.52 0.56 0.62 0.66 0.70 0.77 0.92 1.06 1.11 1.15 1.22 1.30 1.33 1.27 1.25 1.26 1.26 1.40 1.50 1.55 1.73 1.92 2.02 2.08 2.07 2.21 2.25 2.23 2.32 2.26 2.24 2.14 2.11 2.12 2.30
0.57 0.70 0.77 0.56 0.47 0.47 0.49 0.51 0.51 0.49 0.48 0.57 0.69 0.80 0.98 1.17 1.25 1.26 1.30 1.35 1.38 1.34 1.38 1.39 1.43 1.54 1.57 1.55 1.64 1.80 1.93 2.00 2.02 2.09 2.16 2.23 2.23 2.27 2.35 2.24 2.21 2.31 2.43
0.59 0.56 0.59 0.54 0.51 0.52 0.51 0.54 0.57 0.56 0.57 0.73 0.83 0.96 1.15 1.22 1.26 1.34 1.39 1.47 1.48 1.40 1.48 1.56 1.55 1.53 1.47 1.43 1.65 1.78 1.80 1.97 2.02 2.01 1.97 2.05 2.23 2.31 2.34 2.16 2.23 2.36 2.34
0.64 0.71 0.70 0.68 0.69 0.66 0.61 0.62 0.66 0.71 0.83 0.98 1.08 1.14 1.21 1.29 1.27 1.30 1.33 1.46 1.51 1.58 1.68 1.71 1.72 1.64 1.43 1.63 1.73 1.75 1.82 1.91 1.95 1.95 1.85 1.77 1.78 1.87 1.99 1.99 1.97 2.02 2.09
0.77 0.87 0.93 0.89 0.89 0.83 0.77 0.78 0.82 0.93 1.06 1.22 1.39 1.41 1.39 1.43 1.41 1.43 1.43 1.48 1.62 1.75 1.78 1.74 1.74 1.71 1.75 1.78 1.59 1.53 1.47 1.53 1.60 1.60 1.57 1.37 1.29 1.56 1.65 1.81 1.78 1.67 1.67
0.77 0.92 1.03 1.04 0.95 0.94 0.98 1.09 1.13 1.20 1.33 1.43 1.57 1.68 1.70 1.75 1.79 1.86 1.83 1.85 1.89 1.97 1.93 1.84 1.84 1.90 1.91 1.93 1.64 1.52 1.38 1.39 1.39 1.38 1.34 1.34 1.35 1.43 1.56 1.60 1.57 1.52 1.47
0.90 1.05 1.07 1.05 1.04 1.16 1.22 1.26 1.31 1.37 1.55 1.71 1.84 1.91 1.96 1.99 1.99 1.99 2.08 2.17 2.28 2.31 2.21 2.15 2.18 2.21 2.31 2.30 1.97 1.82 1.59 1.51 1.44 1.46 1.51 1.52 1.40 1.45 1.42 1.40 1.39 1.37 1.43
1.04 1.16 1.18 1.16 1.24 1.48 1.55 1.59 1.63 1.69 1.77 1.83 1.95 2.10 2.20 2.24 2.20 2.22 2.37 2.52 2.65 2.62 2.60 2.61 2.64 2.58 2.56 2.51 2.15 2.01 1.80 1.78 1.72 1.73 1.63 1.55 1.38 1.32 1.26 1.25 1.31 1.26 1.28
0.99 1.13 1.17 1.20 1.27 1.49 1.67 1.89 2.03 2.05 2.04 2.09 2.14 2.18 2.28 2.41 2.45 2.52 2.58 2.74 2.85 2.83 2.78 2.71 2.66 2.58 2.55 2.47 2.16 1.99 1.80 1.81 1.83 1.75 1.68 1.58 1.43 1.25 1.21 1.15 1.15 1.18 1.25
0.96 1.07 1.22 1.31 1.40 1.56 1.82 2.03 2.18 2.31 2.37 2.35 2.45 2.45 2.44 2.36 2.34 2.56 2.71 2.85 3.00 2.99 2.93 2.94 2.82 2.70 2.59 2.34 2.10 1.93 1.81 1.87 1.92 1.87 1.78 1.69 1.54 1.29 1.21 1.07 1.06 1.09 1.05
1.00 1.07 1.17 1.31 1.41 1.51 1.72 2.09 2.20 2.24 2.27 2.34 2.35 2.43 2.46 2.48 2.50 2.66 2.82 3.00 3.05 2.96 2.82 2.81 2.78 2.66 2.52 2.40 2.15 1.91 1.79 1.80 1.78 1.87 1.93 1.76 1.58 1.38 1.24 1.19 1.14 1.07 0.99
1.03 1.08 1.16 1.28 1.37 1.34 1.48 1.67 1.88 2.00 2.00 2.00 2.05 2.08 2.19 2.31 2.50 2.72 2.79 2.87 2.93 2.91 2.85 2.78 2.69 2.66 2.66 2.62 2.36 2.05 1.80 1.74 1.78 1.83 1.88 1.73 1.59 1.39 1.26 1.25 1.16 1.02 1.00
0.98 1.05 1.19 1.20 1.24 1.31 1.31 1.34 1.41 1.60 1.77 1.79 1.83 1.96 2.06 2.19 2.36 2.59 2.75 2.71 2.74 2.89 2.76 2.56 2.41 2.30 2.22 2.31 2.21 1.96 1.81 1.75 1.82 1.87 1.92 1.84 1.72 1.60 1.47 1.39 1.37 1.33 1.26
1.00 1.07 1.14 1.13 1.12 1.21 1.25 1.29 1.38 1.55 1.66 1.63 1.65 1.70 1.74 1.87 2.02 2.18 2.31 2.33 2.12 2.17 2.08 1.91 1.75 1.64 1.62 1.66 1.56 1.43 1.37 1.41 1.55 1.65 1.81 1.82 1.72 1.64 1.60 1.57 1.52 1.47 1.37